Location: Ravensburg
(47.7866°N, 9.6124°E)
Time: 08:44:23
(UTC+02:00)

YUBILEINY - Pass Details

Date: 24 March 2026
Orbit: 1477 x 1509 km, 82.5° (Epoch: 17 April)

Event Time Altitude Azimuth Distance (km) Brightness Sun altitude
Rises 00:21:08 0° 353° (N) 4,618 ? -40.9°
Reaches altitude 10° 00:25:29 10° 13° (NNE) 3,630 ? -40.9°
Maximum altitude 00:30:53 17° 52° (NE) 3,072 ? -40.9°
Drops below altitude 10° 00:36:16 10° 91° (E) 3,616 ? -40.8°
Enters shadow 00:36:39 - 93° (E) 3,690 ? -40.8°
